Leakey, Texas, United States (78873)
Lat: 29.73N, Lon: 99.76W
Wx Zone: TXZ185
Local Info
Past Weather Observations for Saturday, April 19, 2014

NOTE: This archive is for the closest National Weather Service station to Leakey. Information may differ from the station used for current weather conditions.

Time Weather Temperature Dewpoint Humidity Pressure Winds Precip Visibility
23:55
Overcast
66°F / 19°C 55°F / 13°C 68% 30.12 in
(1020 mb)
SE 6.9 mph
(SE 11 kph)
- 10SM
23:35
Overcast
66°F / 19°C 55°F / 13°C 68% 30.12 in
(1020 mb)
SE 15 mph
(SE 24 kph)
- 10SM
23:15
Mostly Cloudy
66°F / 19°C 55°F / 13°C 68% 30.09 in
(1019 mb)
SE 18.4 mph
(SE 30 kph)
- 10SM
22:55
Overcast
68°F / 20°C 55°F / 13°C 64% 30.09 in
(1019 mb)
SE 16.1 mph
(SE 26 kph)
- 10SM
22:35
Overcast
68°F / 20°C 54°F / 12°C 60% 30.12 in
(1020 mb)
SE 15 mph
(SE 24 kph)
- 10SM
22:15
Overcast
70°F / 21°C 54°F / 12°C 57% 30.12 in
(1020 mb)
SE 13.8 mph
(SE 22 kph)
- 10SM
21:55
Overcast
70°F / 21°C 54°F / 12°C 57% 30.12 in
(1020 mb)
SE 12.7 mph
(SE 20 kph)
- 10SM
21:35
Overcast
70°F / 21°C 54°F / 12°C 57% 30.12 in
(1020 mb)
SE 12.7 mph
(SE 20 kph)
- 10SM
21:15
Overcast
70°F / 21°C 52°F / 11°C 53% 30.12 in
(1020 mb)
SE 10.4 mph
(SE 17 kph)
- 10SM
20:55
Overcast
70°F / 21°C 52°F / 11°C 53% 30.12 in
(1020 mb)
SE 12.7 mph
(SE 20 kph)
- 10SM
20:35
Overcast
70°F / 21°C 52°F / 11°C 53% 30.12 in
(1020 mb)
SE 10.4 mph
(SE 17 kph)
- 10SM
20:15
Overcast
70°F / 21°C 50°F / 10°C 50% 30.09 in
(1019 mb)
SE 10.4 mph
(SE 17 kph)
- 10SM
19:55
Overcast
70°F / 21°C 50°F / 10°C 50% 30.09 in
(1019 mb)
SE 12.7 mph
(SE 20 kph)
- 10SM
19:35
Overcast
70°F / 21°C 50°F / 10°C 50% 30.06 in
(1018 mb)
SE 13.8 mph
(SE 22 kph)
- 10SM
19:15
Overcast
70°F / 21°C 50°F / 10°C 50% 30.04 in
(1017 mb)
SE 12.7 mph
(SE 20 kph)
- 10SM
18:55
Overcast
70°F / 21°C 50°F / 10°C 50% 30.04 in
(1017 mb)
SE 12.7 mph
(SE 20 kph)
- 10SM
18:35
Overcast
72°F / 22°C 50°F / 10°C 47% 30.06 in
(1018 mb)
SE 15 mph
(SE 24 kph)
- 10SM
18:15
Overcast
72°F / 22°C 52°F / 11°C 50% 30.06 in
(1018 mb)
SE 15 mph
(SE 24 kph)
- 10SM
17:55
Overcast
72°F / 22°C 52°F / 11°C 50% 30.06 in
(1018 mb)
SE 12.7 mph
(SE 20 kph)
- 10SM
17:35
Overcast
72°F / 22°C 52°F / 11°C 50% 30.09 in
(1019 mb)
SE 15 mph
(SE 24 kph)
- 10SM
17:15
Overcast
72°F / 22°C 52°F / 11°C 50% 30.09 in
(1019 mb)
SE 12.7 mph
(SE 20 kph)
- 10SM
16:55
Overcast
72°F / 22°C 52°F / 11°C 50% 30.09 in
(1019 mb)
SSE 12.7 mph
(SSE 20 kph)
- 10SM
16:35
Overcast
72°F / 22°C 52°F / 11°C 50% 30.09 in
(1019 mb)
SE 10.4 mph
(SE 17 kph)
- 10SM
16:15
Overcast
72°F / 22°C 52°F / 11°C 50% 30.09 in
(1019 mb)
SE 12.7 mph
(SE 20 kph)
- 10SM
15:55
Overcast
73°F / 23°C 52°F / 11°C 47% 30.09 in
(1019 mb)
SE 13.8 mph
(SE 22 kph)
- 10SM
15:35
Mostly Cloudy
73°F / 23°C 52°F / 11°C 47% 30.09 in
(1019 mb)
SE 13.8 mph
(SE 22 kph)
- 10SM
15:15
Overcast
73°F / 23°C 52°F / 11°C 47% 30.09 in
(1019 mb)
SSE 15 mph
(SSE 24 kph)
- 10SM
14:55
Mostly Cloudy
73°F / 23°C 52°F / 11°C 47% 30.12 in
(1020 mb)
SE 12.7 mph
(SE 20 kph)
- 10SM
14:35
Partly Cloudy
73°F / 23°C 52°F / 11°C 47% 30.12 in
(1020 mb)
SSE 11.5 mph
(SSE 19 kph)
- 10SM
14:15
Partly Cloudy
73°F / 23°C 52°F / 11°C 47% 30.12 in
(1020 mb)
SSE 17.3 mph
(SSE 28 kph)
- 10SM
13:55
Partly Cloudy
73°F / 23°C 52°F / 11°C 47% 30.12 in
(1020 mb)
SSE 19.6 mph
(SSE 32 kph)
- 10SM
13:35
Partly Cloudy
73°F / 23°C 52°F / 11°C 47% 30.12 in
(1020 mb)
SE 13.8 mph
(SE 22 kph)
- 10SM
13:15
Partly Cloudy
73°F / 23°C 52°F / 11°C 47% 30.12 in
(1020 mb)
SE 19.6 mph
(SE 32 kph)
- 10SM
12:55
Partly Cloudy
73°F / 23°C 52°F / 11°C 47% 30.12 in
(1020 mb)
SSE 19.6 mph
(SSE 32 kph)
- 10SM
12:35
Partly Cloudy
70°F / 21°C 52°F / 11°C 53% 30.15 in
(1021 mb)
SSE 16.1 mph
(SSE 26 kph)
- 10SM
12:15
Partly Cloudy
70°F / 21°C 50°F / 10°C 50% 30.15 in
(1021 mb)
SE 16.1 mph
(SE 26 kph)
- 10SM
11:55
Partly Cloudy
72°F / 22°C 52°F / 11°C 50% 30.15 in
(1021 mb)
SE 16.1 mph
(SE 26 kph)
- 10SM
11:35
Clear
70°F / 21°C 52°F / 11°C 53% 30.18 in
(1022 mb)
SSE 15 mph
(SSE 24 kph)
- 10SM
11:15
Partly Cloudy
70°F / 21°C 52°F / 11°C 53% 30.21 in
(1023 mb)
SSE 15 mph
(SSE 24 kph)
- 10SM
10:55
Partly Cloudy
70°F / 21°C 52°F / 11°C 53% 30.21 in
(1023 mb)
S 13.8 mph
(S 22 kph)
- 10SM
10:35
Partly Cloudy
70°F / 21°C 52°F / 11°C 53% 30.21 in
(1023 mb)
SE 15 mph
(SE 24 kph)
- 9SM
10:15
Partly Cloudy
70°F / 21°C 52°F / 11°C 53% 30.21 in
(1023 mb)
SSE 11.5 mph
(SSE 19 kph)
- 10SM
09:55
Partly Cloudy
70°F / 21°C 52°F / 11°C 53% 30.18 in
(1022 mb)
SSE 15 mph
(SSE 24 kph)
- 10SM
09:35
Clear
66°F / 19°C 52°F / 11°C 60% 30.18 in
(1022 mb)
SSE 13.8 mph
(SSE 22 kph)
- 10SM
09:15
Partly Cloudy
64°F / 18°C 52°F / 11°C 64% 30.18 in
(1022 mb)
SSE 13.8 mph
(SSE 22 kph)
- 10SM
08:55
Partly Cloudy
64°F / 18°C 52°F / 11°C 64% 30.18 in
(1022 mb)
SSE 10.4 mph
(SSE 17 kph)
- 10SM
08:35
Partly Cloudy
63°F / 17°C 52°F / 11°C 68% 30.18 in
(1022 mb)
SE 10.4 mph
(SE 17 kph)
- 10SM
08:15
Clear
63°F / 17°C 52°F / 11°C 68% 30.18 in
(1022 mb)
SE 10.4 mph
(SE 17 kph)
- 10SM
07:55
Clear
61°F / 16°C 52°F / 11°C 72% 30.18 in
(1022 mb)
SSE 9.2 mph
(SSE 15 kph)
- 10SM
07:35
Clear
61°F / 16°C 52°F / 11°C 72% 30.18 in
(1022 mb)
SE 10.4 mph
(SE 17 kph)
- 10SM
07:15
Partly Cloudy
59°F / 15°C 52°F / 11°C 77% 30.18 in
(1022 mb)
SE 9.2 mph
(SE 15 kph)
- 9SM
06:55
Partly Cloudy
57°F / 14°C 52°F / 11°C 82% 30.18 in
(1022 mb)
SE 9.2 mph
(SE 15 kph)
- 9SM
06:35
Clear
57°F / 14°C 52°F / 11°C 82% 30.15 in
(1021 mb)
SE 8.1 mph
(SE 13 kph)
- 9SM
06:15
Clear
57°F / 14°C 52°F / 11°C 82% 30.15 in
(1021 mb)
SSE 8.1 mph
(SSE 13 kph)
- 10SM
05:55
Clear
57°F / 14°C 52°F / 11°C 82% 30.15 in
(1021 mb)
SSE 9.2 mph
(SSE 15 kph)
- 10SM
05:35
Clear
57°F / 14°C 52°F / 11°C 82% 30.15 in
(1021 mb)
SSE 9.2 mph
(SSE 15 kph)
- 10SM
05:15
Clear
57°F / 14°C 54°F / 12°C 88% 30.15 in
(1021 mb)
SSE 9.2 mph
(SSE 15 kph)
- 10SM
04:55
Clear
59°F / 15°C 54°F / 12°C 82% 30.12 in
(1020 mb)
SE 10.4 mph
(SE 17 kph)
- 10SM
04:35
Partly Cloudy
59°F / 15°C 54°F / 12°C 82% 30.12 in
(1020 mb)
SE 11.5 mph
(SE 19 kph)
- 10SM
04:15
Mostly Cloudy
61°F / 16°C 54°F / 12°C 77% 30.12 in
(1020 mb)
SE 9.2 mph
(SE 15 kph)
- 10SM
03:55
Partly Cloudy
61°F / 16°C 54°F / 12°C 77% 30.12 in
(1020 mb)
SE 10.4 mph
(SE 17 kph)
- 10SM
03:35
Clear
61°F / 16°C 54°F / 12°C 77% 30.12 in
(1020 mb)
SE 12.7 mph
(SE 20 kph)
- 10SM
03:15
Clear
61°F / 16°C 54°F / 12°C 77% 30.12 in
(1020 mb)
SE 9.2 mph
(SE 15 kph)
- 10SM
02:55
Partly Cloudy
61°F / 16°C 54°F / 12°C 77% 30.12 in
(1020 mb)
SE 6.9 mph
(SE 11 kph)
- 10SM
02:35
Partly Cloudy
61°F / 16°C 54°F / 12°C 77% 30.12 in
(1020 mb)
SE 10.4 mph
(SE 17 kph)
- 10SM
02:15
Clear
61°F / 16°C 54°F / 12°C 77% 30.12 in
(1020 mb)
SE 11.5 mph
(SE 19 kph)
- 10SM
01:55
Clear
63°F / 17°C 54°F / 12°C 73% 30.12 in
(1020 mb)
SE 10.4 mph
(SE 17 kph)
- 10SM
01:35
Clear
63°F / 17°C 54°F / 12°C 73% 30.15 in
(1021 mb)
SE 12.7 mph
(SE 20 kph)
- 10SM
01:15
Clear
63°F / 17°C 52°F / 11°C 68% 30.15 in
(1021 mb)
SE 11.5 mph
(SE 19 kph)
- 10SM
00:55
Clear
63°F / 17°C 52°F / 11°C 68% 30.15 in
(1021 mb)
SE 10.4 mph
(SE 17 kph)
- 10SM
00:35
Clear
63°F / 17°C 52°F / 11°C 68% 30.15 in
(1021 mb)
SE 8.1 mph
(SE 13 kph)
- 10SM
00:15
Clear
63°F / 17°C 52°F / 11°C 68% 30.15 in
(1021 mb)
SE 6.9 mph
(SE 11 kph)
- 10SM
Time Weather Temperature Dewpoint Humidity Pressure Winds Precip Visibility


Weather for websites

WeatherForYou.com, LLC is not responsible for any damages or problems caused by this service. Current weather conditions are obtained from the closest station including government and personal stations which may have varying degrees of accuracy. Weather forecasts are derived from the NOAA NDFD. Like all things, this site belongs to Jesus Christ... He just trusts me to maintain it. If you have any questions or comments email webmaster@weatherforyou.com

Copyright © 2014, WeatherForYou.com LLC. All rights reserved.